[[{"header":{"parameterUnit":"m.s-1","parameterCategory":1,"la1":30.2991,"la2":30.254,"lo1":-89.0895,"lo2":-89.0444,"dy":0.0017,"dx":0.0017,"nx":28,"ny":28,"refTime":"2023-08-24T21:00:00:Z","depth":0,"parameterNumber":2,"parameterNumberName":"U-component_of_WINDS"},"data":[0,0,0,0,0,0,0,0,0,0,0,0,0,0,0,0,0,0,0,0,0,0,0,0,0,0,0,0,0,0,0,0,0,0,0,0,0,0,0,0,0,0,0,0,0,0,0,0,0,0,0,0,0,0,0,0,0,0,2.0233,2.0234,0,2.0308,2.0309,2.031,2.0232,2.0229,2.0226,2.0223,2.0305,2.031,2.0315,0,0,0,0,0,0,0,0,0,0,0,0,0,2.0029,2.0034,2.0233,2.0234,2.0235,2.0308,2.0309,2.031,2.0232,2.0229,2.0225,2.0222,2.0304,2.031,2.0316,0,0,0,0,0,0,0,0,0,0,0,0,0,2.0113,2.0035,2.0233,2.0205,2.0203,2.0308,2.0309,2.031,2.0233,2.0229,2.0224,2.022,2.0302,2.0309,2.0317,2.0455,0,0,2.034,2.0343,0,0,0,0,0,0,0,0,2.0108,2.012,2.0208,2.0207,2.0205,2.0256,2.0267,2.0359,2.0234,2.0222,2.0223,2.0218,2.0293,2.0301,2.0325,2.0458,2.0462,2.034,2.0345,2.0348,2.035,0,0,0,0,0,0,0,2.0102,2.0117,2.0263,2.0209,2.0208,2.0191,2.0198,2.0284,2.0282,2.0223,2.0217,2.0227,2.0291,2.0318,2.0327,2.0463,2.034,2.0347,2.0351,2.0354,2.0718,2.0722,0,0,0,0,0,0,2.0099,2.0112,2.026,2.0265,2.0144,2.0198,2.0206,2.0244,2.0281,2.0282,2.0231,2.0223,2.0308,2.0318,2.0329,2.0496,2.0348,2.0355,2.0359,2.0712,2.0719,2.0724,0,0,0,0,0,0,2.0095,2.0113,2.0257,2.0187,2.0204,2.0207,2.025,2.0248,2.0275,2.0287,2.0287,2.0258,2.0304,2.0319,2.0424,2.0498,2.0359,2.0365,2.0706,2.0714,2.0721,2.0829,0,0,0,0,0,0,2.0089,2.0112,2.0162,2.0189,2.0208,2.035,2.0255,2.0253,2.0287,2.0278,2.0313,2.0314,2.0302,2.0414,2.0432,2.0506,2.0371,2.07,2.071,2.0719,2.0819,2.0839,2.0857,0,0,0,0,0,2.0082,2.019,2.0165,2.0184,2.0271,2.0354,2.0365,2.0347,2.0293,2.0346,2.0354,2.0313,2.0486,2.0425,2.0445,2.0522,2.0695,2.0707,2.0718,2.081,2.0835,2.0856,0,0,0,0,0,0,2.0173,2.0193,2.0166,2.0285,2.0318,2.034,2.0406,2.0374,2.0424,2.0414,2.0391,2.04,2.0513,2.0527,2.0459,2.066,2.0582,2.0598,2.0646,2.0669,2.0688,2.0683,2.0378,0,0,0,0,0,2.0207,2.027,2.0284,2.0388,2.0406,2.0404,2.0439,2.0422,2.0457,2.0471,2.0487,2.0524,2.0586,2.0628,2.0687,2.082,2.0829,2.0883,2.0902,2.0918,2.0933,2.1008,2.1034,2.0762,2.0762,2.0762,0,0,2.0277,2.0296,2.0338,2.0407,2.0431,2.05,2.0416,2.0491,2.0543,2.0483,2.0584,2.0597,2.0637,2.0758,2.0813,2.0775,2.101,2.0933,2.0945,2.0951,2.1023,2.1049,2.1071,2.077,2.0768,2.0767,0,0,2.0442,2.0461,2.0551,2.0577,2.0614,2.0611,2.0633,2.0661,2.0668,2.0768,2.0726,2.0788,2.0896,2.0927,2.0957,2.1136,2.1102,2.1156,2.1256,2.133,2.1351,2.137,2.1437,2.1461,2.117,2.1171,2.1171,0,2.0525,2.0625,2.0602,2.0681,2.0715,2.0662,2.0755,2.0782,2.0837,2.0863,2.0819,2.0955,2.0978,2.1108,2.1152,2.1177,2.1204,2.1153,2.1349,2.1368,2.1386,2.145,2.1475,2.1177,2.1176,2.1176,2.1175,0,2.0728,2.0798,2.0867,2.0921,2.0962,2.1048,2.104,2.1085,2.1066,2.1069,2.1175,2.1201,2.1265,2.1294,2.1276,2.1423,2.1398,2.1352,2.1275,2.1419,2.1479,2.1502,2.1187,2.1184,2.1182,2.1181,0,0,2.0951,2.0992,2.1018,2.1043,2.1082,2.1137,2.1222,2.1283,2.1324,2.1365,2.1438,2.1531,2.149,2.1524,2.1509,2.1574,2.1719,2.1521,2.1521,2.1559,2.1886,2.1922,2.1951,2.1695,2.17,2.1703,2.1884,0,2.1119,2.1264,2.1247,2.1388,2.1455,2.1407,2.1482,2.1515,2.1521,2.1581,2.1588,2.1656,2.1594,2.1615,2.1677,2.1688,2.1785,2.1674,2.1766,2.177,2.176,2.1981,2.2019,2.2188,2.1907,2.1911,2.1913,0,2.1333,2.1381,2.1528,2.1559,2.1586,2.1654,2.1711,2.1767,2.1805,2.1805,2.1845,2.1819,2.1908,2.1828,2.1952,2.1878,2.1914,2.1926,2.1932,2.1942,2.1852,2.2,2.2241,2.2267,2.1949,2.1946,2.1944,0,2.1485,2.1586,2.1688,2.1711,2.1749,2.1798,2.1816,2.1849,2.1889,2.1939,2.1965,2.2025,2.206,2.2108,2.2101,2.2043,2.2229,2.2147,2.2235,2.2235,2.2278,2.2276,2.2531,2.2297,2.2297,2.2297,2.2296,0,2.1675,2.1768,2.1757,2.182,2.1924,2.1905,2.2009,2.2021,2.2052,2.2119,2.2081,2.2146,2.2131,2.2196,2.2191,2.2297,2.2312,2.2317,2.2315,2.2321,2.2321,2.2347,2.2336,2.2303,2.2302,2.23,2.2299,0,2.1863,2.1859,2.1968,2.1995,2.2004,2.208,2.2104,2.2165,2.2168,2.2254,2.2273,2.2279,2.2354,2.2351,2.2436,2.2433,2.2564,2.2547,2.2551,2.2548,2.2637,2.263,2.292,2.2958,2.2697,2.27,2.2702,0,2.1985,2.2056,2.2091,2.2132,2.2154,2.2221,2.2261,2.2246,2.2289,2.234,2.2396,2.2467,2.2522,2.2644,2.2658,2.2724,2.271,2.2807,2.272,2.2725,2.2715,2.2712,2.2721,2.2825,2.2828,2.283,2.2832,0,2.2205,2.22,2.2258,2.2317,2.2366,2.2412,2.2454,2.249,2.248,2.2532,2.2607,2.265,2.2737,2.2809,2.2872,2.2894,2.2864,2.2859,2.2884,2.2893,2.2893,2.2897,2.26,2.2853,2.2851,2.285,2.2848,2.2848,2.2366,2.2427,2.2462,2.2529,2.2559,2.26,2.266,2.2671,2.2733,2.2802,2.2789,2.2875,2.2914,2.2996,2.3023,2.3092,2.3058,2.3092,2.3101,2.3111,2.3122,2.288,2.3103,2.3102,2.3102,2.3101,2.3101,0,2.2586,2.2606,2.2668,2.2728,2.2782,2.2746,2.2792,2.284,2.2915,2.2954,2.301,2.3098,2.3169,2.3188,2.3257,2.3308,2.3296,2.3327,2.3325,2.3331,2.3147,2.3121,2.3336,2.3336,2.3336,2.3336,2.3336,2.3336,2.2706,2.281,2.281,2.2929,2.2949,2.3032,2.3061,2.31,2.3131,2.3231,2.3289,2.3301,2.3334,2.3405,2.3469,2.3473,2.3502,2.3539,2.3538,2.3367,2.3343,2.3321,2.3296,2.3545,2.3545,2.3716,2.3718,2.3719]},{"header":{"parameterUnit":"m.s-1","parameterCategory":1,"la1":30.2991,"la2":30.254,"lo1":-89.0895,"lo2":-89.0444,"dy":0.0017,"dx":0.0017,"nx":28,"ny":28,"refTime":"2023-08-24T21:00:00:Z","depth":0,"parameterNumber":3,"parameterNumberName":"V-component_of_WINDS"},"data":[0,0,0,0,0,0,0,0,0,0,0,0,0,0,0,0,0,0,0,0,0,0,0,0,0,0,0,0,0,0,0,0,0,0,0,0,0,0,0,0,0,0,0,0,0,0,0,0,0,0,0,0,0,0,0,0,0,0,-0.1441,-0.1441,0,-0.1381,-0.1381,-0.138,-0.1421,-0.1423,-0.1425,-0.1427,-0.1364,-0.1361,-0.1358,0,0,0,0,0,0,0,0,0,0,0,0,0,-0.1593,-0.159,-0.1441,-0.1441,-0.144,-0.1382,-0.1381,-0.138,-0.1421,-0.1423,-0.1426,-0.1428,-0.1365,-0.1361,-0.1357,0,0,0,0,0,0,0,0,0,0,0,0,0,-0.1529,-0.1589,-0.1441,-0.1453,-0.1454,-0.1382,-0.1381,-0.138,-0.1421,-0.1423,-0.1426,-0.1429,-0.1367,-0.1362,-0.1357,-0.1269,0,0,-0.1341,-0.1339,0,0,0,0,0,0,0,0,-0.1533,-0.1524,-0.1452,-0.1452,-0.1453,-0.1412,-0.1411,-0.1343,-0.142,-0.1433,-0.1427,-0.143,-0.1378,-0.1372,-0.1354,-0.1266,-0.1263,-0.1341,-0.1337,-0.1335,-0.1334,0,0,0,0,0,0,0,-0.1537,-0.1526,-0.1418,-0.1451,-0.1452,-0.1462,-0.1456,-0.1398,-0.139,-0.1432,-0.1435,-0.1428,-0.1378,-0.1359,-0.1353,-0.1262,-0.1341,-0.1336,-0.1333,-0.1331,-0.1105,-0.1102,0,0,0,0,0,0,-0.154,-0.153,-0.142,-0.1416,-0.1501,-0.1457,-0.1451,-0.1422,-0.1391,-0.1389,-0.1425,-0.143,-0.1367,-0.1359,-0.1351,-0.1251,-0.1335,-0.1331,-0.1328,-0.1108,-0.1104,-0.1101,0,0,0,0,0,0,-0.1543,-0.153,-0.1422,-0.1474,-0.1461,-0.1452,-0.1419,-0.1419,-0.1401,-0.1386,-0.1385,-0.1407,-0.1369,-0.1358,-0.1291,-0.1249,-0.1328,-0.1324,-0.1111,-0.1107,-0.1103,-0.1047,0,0,0,0,0,0,-0.1548,-0.1531,-0.1497,-0.1473,-0.1458,-0.1362,-0.1417,-0.1416,-0.1392,-0.1397,-0.1369,-0.1367,-0.137,-0.1298,-0.1285,-0.1244,-0.132,-0.1115,-0.1109,-0.1104,-0.1052,-0.1041,-0.1031,0,0,0,0,0,-0.1553,-0.1482,-0.1495,-0.1481,-0.1415,-0.1359,-0.1351,-0.1356,-0.1388,-0.1355,-0.1346,-0.1367,-0.1255,-0.1291,-0.1277,-0.1233,-0.1118,-0.1111,-0.1105,-0.1057,-0.1043,-0.1032,0,0,0,0,0,0,-0.15,-0.1479,-0.1493,-0.1412,-0.1387,-0.1366,-0.1324,-0.1341,-0.1306,-0.1312,-0.132,-0.1314,-0.1244,-0.1231,-0.1271,-0.1149,-0.1192,-0.1182,-0.116,-0.1147,-0.1137,-0.1142,-0.1315,0,0,0,0,0,-0.1479,-0.1435,-0.1419,-0.1349,-0.1336,-0.1332,-0.1308,-0.1315,-0.1289,-0.1279,-0.1265,-0.1239,-0.1199,-0.1172,-0.1133,-0.105,-0.1047,-0.1013,-0.1003,-0.0994,-0.0987,-0.0947,-0.0933,-0.108,-0.108,-0.108,0,0,-0.1435,-0.1418,-0.139,-0.1338,-0.132,-0.1276,-0.1323,-0.1273,-0.1241,-0.1271,-0.1208,-0.1196,-0.1169,-0.1094,-0.1061,-0.1082,-0.0945,-0.0986,-0.0979,-0.0976,-0.0939,-0.0925,-0.0912,-0.1075,-0.1076,-0.1077,0,0,-0.1333,-0.1314,-0.1257,-0.1239,-0.1211,-0.1209,-0.1196,-0.1172,-0.1167,-0.1104,-0.1127,-0.1089,-0.1017,-0.0998,-0.0979,-0.0874,-0.0894,-0.0861,-0.0807,-0.0768,-0.0757,-0.0747,-0.0713,-0.0701,-0.0853,-0.0853,-0.0853,0,-0.1282,-0.1217,-0.1225,-0.1175,-0.1153,-0.118,-0.1123,-0.1104,-0.1065,-0.105,-0.1074,-0.0989,-0.0971,-0.0895,-0.0871,-0.0852,-0.0839,-0.0866,-0.0758,-0.0748,-0.0738,-0.0707,-0.0694,-0.085,-0.085,-0.085,-0.0851,0,-0.1157,-0.1112,-0.1068,-0.1033,-0.1006,-0.0952,-0.0954,-0.0926,-0.0936,-0.0932,-0.0869,-0.085,-0.081,-0.0792,-0.08,-0.0718,-0.0733,-0.0757,-0.08,-0.0721,-0.0692,-0.0679,-0.0845,-0.0846,-0.0847,-0.0848,0,0,-0.102,-0.0992,-0.0976,-0.0963,-0.0936,-0.0901,-0.085,-0.0813,-0.0791,-0.0763,-0.0723,-0.0664,-0.0687,-0.0666,-0.0672,-0.0637,-0.0561,-0.0666,-0.0666,-0.0651,-0.0475,-0.046,-0.0445,-0.0574,-0.0571,-0.0569,-0.0479,0,-0.092,-0.0832,-0.084,-0.0758,-0.0718,-0.0745,-0.0701,-0.068,-0.0676,-0.0642,-0.0637,-0.0597,-0.0629,-0.0617,-0.0584,-0.0577,-0.0527,-0.0584,-0.0538,-0.0537,-0.0548,-0.0429,-0.0412,-0.0327,-0.0467,-0.0465,-0.0463,0,-0.0791,-0.0763,-0.0677,-0.0661,-0.0645,-0.0605,-0.0574,-0.0541,-0.0519,-0.0519,-0.0497,-0.051,-0.0461,-0.0504,-0.0438,-0.0477,-0.0459,-0.0453,-0.045,-0.0448,-0.0497,-0.0428,-0.03,-0.0289,-0.0445,-0.0446,-0.0448,0,-0.0705,-0.0645,-0.0587,-0.0574,-0.0552,-0.0525,-0.0514,-0.0496,-0.0474,-0.0447,-0.0434,-0.04,-0.0382,-0.0356,-0.0361,-0.0392,-0.0296,-0.0338,-0.0296,-0.0296,-0.0277,-0.0278,-0.0148,-0.0259,-0.0259,-0.026,-0.026,0,-0.0595,-0.0542,-0.0549,-0.0513,-0.0457,-0.0466,-0.041,-0.0403,-0.0387,-0.0352,-0.0371,-0.0338,-0.0345,-0.0312,-0.0315,-0.0263,-0.0253,-0.0254,-0.0256,-0.0254,-0.0254,-0.0244,-0.0251,-0.0256,-0.0257,-0.0258,-0.0258,0,-0.0489,-0.0491,-0.0431,-0.0417,-0.0412,-0.0371,-0.036,-0.0327,-0.0326,-0.0281,-0.0272,-0.0269,-0.0232,-0.0234,-0.0191,-0.0194,-0.013,-0.0137,-0.0138,-0.0141,-0.0101,-0.0106,0.0039,0.0056,-0.0063,-0.0062,-0.0061,0,-0.042,-0.0381,-0.0364,-0.0343,-0.0332,-0.0297,-0.0276,-0.0285,-0.0263,-0.0238,-0.0209,-0.0174,-0.0147,-0.0087,-0.0082,-0.005,-0.0059,-0.0011,-0.0054,-0.0055,-0.0063,-0.0067,-0.0065,-0.0003,-0.0001,-0.0,0.0001,0,-0.0299,-0.0303,-0.0273,-0.0245,-0.022,-0.0197,-0.0177,-0.0158,-0.0165,-0.0139,-0.0103,-0.0082,-0.004,-0.0007,0.0022,0.0032,0.0014,0.0014,0.0025,0.0026,0.0022,0.002,-0.0119,0.0011,0.001,0.0009,0.0008,0.0008,-0.0213,-0.0181,-0.0166,-0.0133,-0.0119,-0.01,-0.0071,-0.0067,-0.0037,-0.0005,-0.0012,0.0028,0.0045,0.0082,0.0095,0.0125,0.0107,0.0124,0.0128,0.0131,0.0133,0.002,0.0131,0.0131,0.013,0.013,0.013,0,-0.0097,-0.0089,-0.0058,-0.0031,-0.0006,-0.0025,-0.0004,0.0018,0.0053,0.007,0.0096,0.0135,0.0167,0.0174,0.0204,0.0226,0.0218,0.0234,0.0231,0.0232,0.0149,0.0135,0.0239,0.0239,0.0239,0.0239,0.0239,0.0239,-0.0033,0.0017,0.0015,0.0071,0.0079,0.0116,0.0129,0.0145,0.0158,0.0203,0.0228,0.0232,0.0244,0.0274,0.0301,0.0302,0.0312,0.033,0.0328,0.025,0.0239,0.0228,0.0215,0.0334,0.0334,0.0408,0.0408,0.0409]}]]